Regional Weather Roundup
Issued by NWS

Home | Current Version | Previous Version | Graphics & Text | Print | Product List | Glossary On
Versions: 1 2 3 4 5 6 7 8 9 10 11 12 13 14 15 16 17 18 19 20 21 22 23 24 25 26 27 28 29 30 31 32 33 34 35 36 37 38 39 40 41 42 43 44 45 46 47 48 49 50
113
ASUS43 KMPX 300910
RWRMN
WEATHER ROUNDUP FOR MINNESOTA
NATIONAL WEATHER SERVICE TWIN CITIES/CHANHASSEN MN
400 AM CDT THU MAR 30 2017


NOTE: "FAIR" INDICATES FEW OR NO CLOUDS BELOW 12,000 FEET WITH NO
SIGNIFICANT WEATHER AND/OR OBSTRUCTIONS TO VISIBILITY. N/A MEANS
CURRENT SKY AND/OR WEATHER CONDITIONS ARE NOT AVAILABLE.

MNZ060>063-068>070-301000-
   Twin Cities Metro

CITY           SKY/WX    TMP DP  RH WIND       PRES   REMARKS
TWIN CITIES    CLOUDY    40  36  86 NE12      30.00F
ST PAUL        CLOUDY    40  38  93 NE9       30.01F
CRYSTAL        CLOUDY    40  34  79 NE7       30.00F
BLAINE         CLOUDY    41  39  93 NE8       30.01F
LAKEVILLE      CLOUDY    37  37 100 NE8       29.98S
EDEN PRAIRIE   CLOUDY    41  37  86 NE10      29.99S
SOUTH ST PAUL  CLOUDY    40  38  93 NE8       30.00F
LAKE ELMO      CLOUDY    39  36  87 NE10      30.01F
$$
MNZ001>005-007-008-013>017-022>024-027-028-301000-
   Northwest Minnesota

CITY           SKY/WX    TMP DP  RH WIND       PRES   REMARKS
BEMIDJI        CLEAR     29  28  96 SE3       30.01F
HALLOCK        MOCLDY    43  37  81 S10       29.97S
ROSEAU         CLOUDY    39  34  81 CALM      29.99S
WARROAD        PTCLDY    37  34  87 S3        30.00S
THIEF RVR FALL CLEAR     37  35  92 S10       29.99F
CROOKSTON      CLEAR     37  36  93 S10       30.00F
FOSSTON        CLEAR     30  28  93 SW5       30.02S WCI  25
DETROIT LAKES  CLEAR     32  32 100 SE6       30.02S FOG     WCI  26
MOORHEAD       CLEAR     34  32  93 S5        30.02F WCI  30
PARK RAPIDS    CLEAR     32  27  81 SE7       30.02F WCI  26
MAHNOMEN       FAIR      33  32  96 S5        30.01S WCI  28
$$
MNZ006-009>011-018-025>026-301000-
   North Central Minnesota

CITY           SKY/WX    TMP DP  RH WIND       PRES   REMARKS
BAUDETTE       PTCLDY    33  29  85 SE7       30.01F WCI  27
FLAG ISLAND    CLOUDY    34  30  86 S9        29.99F WCI  26
INTL FALLS     CLEAR     28  24  85 SE5       30.04F WCI  23
WASKISH        CLEAR     34  30  86 S5        30.02F WCI  30
BIG FORK       CLEAR     28  27  93 CALM      30.04F
LONGVILLE      CLEAR     27  25  93 CALM      30.05F
GRAND RAPIDS   CLEAR     27  26  96 SE5       30.07F WCI  22
CRANE LAKE     CLEAR     25  23  93 CALM      30.09F
ORR            CLEAR     28  21  74 CALM      30.03F
COOK           CLEAR     27  23  86 CALM      30.06F
WALKER         FAIR      29  28  95 E3        30.03F
$$
MNZ012-019>021-037-301000-
   Northeast Minnesota

CITY           SKY/WX    TMP DP  RH WIND       PRES   REMARKS
DULUTH         CLOUDY    30  29  96 E10       30.06F WCI  21
ELY            CLEAR     25  23  93 CALM      30.07F
HIBBING        CLEAR     23  23 100 CALM      30.06F
EVELETH        CLEAR    N/A N/A N/A CALM      30.07F
DULUTH HARBOR  CLOUDY    36  34  93 NE16      30.11F
TWO HARBORS    MOCLDY    34  28  80 NE5       30.07F WCI  30
SILVER BAY     CLOUDY    30  28  93 N5        30.08F WCI  25
GRAND MARAIS     N/A     34  26  72 NE10      30.13F WCI  26
G MARAIS ARPRT CLOUDY    25  19  80 NE7       30.08F WCI  17
$$
MNZ029>031-032-039>041-046>048-054>057-064-301000-
   West Central Minnesota

CITY           SKY/WX    TMP DP  RH WIND       PRES   REMARKS
FERGUS FALLS   PTCLDY    36  36 100 E3        30.05F FOG
WHEATON        CLOUDY    36  34  93 CALM      30.02F
MORRIS         CLOUDY    39  37  93 NE6       29.99F
ALEXANDRIA     CLOUDY    38  37  97 E8        30.01F
ELBOW LAKE     CLOUDY    37  37  98 E3        30.01F
WADENA         MOCLDY    34  30  86 CALM      30.02F
GLENWOOD       CLOUDY    37  37 100 NE8       30.00F FOG
APPLETON       CLOUDY    39  37  93 CALM      29.99F
BENSON         DRIZZLE   43  36  75 E6        30.01F
ORTONVILLE     DRIZZLE   39  37  93 E8        29.99F
MADISON        CLOUDY    43  43 100 NE7       29.98F
WILLMAR        CLOUDY    41  37  87 E12       30.00F
$$
MNZ033>034-036-042>043-049>051-058-059-301000-
   Central Minnesota

CITY           SKY/WX    TMP DP  RH WIND       PRES   REMARKS
ST CLOUD       CLOUDY    36  32  85 NE6       30.02F
SAUK CENTRE    CLOUDY    37  36  93 NE6       30.01F
PAYNESVILLE    CLOUDY    40  40 100 NE8       30.01F
AITKIN         CLOUDY    28  25  86 CALM      30.04F
PINE RIVER     CLEAR     27  27 100 CALM      30.08F
BRAINERD       CLOUDY    29  28  96 NE3       30.04F
STAPLES        CLEAR     30  28  93 E3        30.03F
LONG PRAIRIE   CLOUDY    34  32  93 NE6       30.02F WCI  29
LITTLE FALLS   CLOUDY    34  30  86 CALM      30.03F
LITCHFIELD     CLOUDY    41  37  87 E9        30.00F
BUFFALO        CLOUDY    39  36  87 NE7       30.01F
MAPLE LAKE     CLOUDY    40  38  90 E8        30.01F
HUTCHINSON     CLOUDY    40  39  96 NE13      29.99F
$$
MNZ037-044-045-052-053-301000-
   East Central Minnesota

CITY           SKY/WX    TMP DP  RH WIND       PRES   REMARKS
PRINCETON      CLOUDY    37  32  81 N7        30.03F
MORA           CLOUDY    32  28  86 NE5       30.06F WCI  27
CAMBRIDGE      CLOUDY    37  30  75 N3        30.02S
RUSH CITY      CLOUDY    34  30  86 NE5       30.05S WCI  30
MOOSE LAKE     CLOUDY    32  30  93 CALM      30.06S
CLOQUET        CLOUDY    30  30 100 E8        30.06F WCI  23
MCGREGOR       CLOUDY    30  30 100 E6        30.06F WCI  24
$$
MNZ071>073-080-081-089-090-097-098-301000-
   Southwest Minnesota

CITY           SKY/WX    TMP DP  RH WIND       PRES   REMARKS
MONTEVIDEO     CLOUDY    39  37  93 SE7       29.99F
GRANITE FALLS  CLOUDY    41  38  88 NE9       29.99F
CANBY          CLOUDY    40  38  93 CALM      29.99F
MARSHALL       CLOUDY    39  37  92 E10       29.97F
REDWOOD FALLS  CLOUDY    40  36  86 E8        29.97F
OLIVIA         CLOUDY    39  36  87 E8        29.98F
PIPESTONE      DRIZZLE   37  34  87 NE9       29.91F
WINDOM         RAIN      37  37 100 NE16      29.91F
WORTHINGTON    CLOUDY    37  36  96 NE16      29.89F
JACKSON        LGT SNOW  36  36 100 E16G22    29.89F
TRACY          DRIZZLE   39  38  99 NE9       29.95F
SLAYTON        DRIZZLE   36  36  99 NE12      29.92F
$$
MNZ065>067-074>077-082>085-091>093-301000-
   South Central Minnesota

CITY           SKY/WX    TMP DP  RH WIND       PRES   REMARKS
MANKATO        CLOUDY    39  35  86 NE14      29.95F
NEW ULM        CLOUDY    39  36  87 E10G16    29.95F
ST JAMES       LGT RAIN  39  37  93 NE10      29.94F
FAIRMONT       LGT RAIN  37  35  92 E17       29.90F
GLENCOE        DRIZZLE   40  40  99 NE7       29.97F
FARIBAULT      DRIZZLE   37  36  93 NE9G16    29.96F
OWATONNA       LGT RAIN  37  34  87 E17       29.93F
WASECA         RAIN      36  34  93 NE16G26   29.93F
ALBERT LEA     LGT RAIN  36  36 100 E16G24    29.89F
$$
MNZ078>079-086>088-094>096-301000-
   Southeast Minnesota

CITY           SKY/WX    TMP DP  RH WIND       PRES   REMARKS
ROCHESTER      CLOUDY    36  34  92 E18       29.91F
RED WING       CLOUDY    39  36  87 E8G17     29.98F
STANTON        CLOUDY    40  36  86 E10       29.96F
DODGE CENTER   LGT RAIN  36  34  93 NE17      29.92F
WINONA         CLOUDY    36  34  93 E8        29.97F
AUSTIN         RAIN      37  34  87 E14       29.87F
PRESTON        CLOUDY    35  33  91 E14       29.90F WCI  26
$$
ABBREVIATIONS USED IN REMARKS
   TC - TEMPERATURES IN CELSIUS
  WCI - WIND CHILL INDEX
   HX - HEAT INDEX
  VSB - VISIBILITY
$$




USA.gov is the U.S. government's official web portal to all federal, state and local government web resources and services.